GW2145 Weather Reports


Display with metric or nautical units.
time (UTC)temp
F
wind
direction
speed
MPH
gust
MPH
rain 1hr
in
rain 24hr
in
rain mn
in
humidity
%
barometer
mb
20260504202414 53 229 3.0 9.0 0.00 0.00 0.00 41 915.5
20260504201417 51 291 3.0 9.0 0.00 0.00 0.00 46 915.4
20260504200420 50 278 4.0 14.0 0.00 0.00 0.00 48 915.4
20260504195424 49 291 8.0 14.0 0.00 0.00 0.00 51 915.4
20260504194424 49 296 4.0 15.0 0.00 0.00 0.00 53 915.5
20260504193433 49 288 4.0 8.0 0.00 0.00 0.00 50 915.5
20260504192434 49 277 4.0 12.0 0.00 0.00 0.00 52 915.4
20260504191919 49 252 4.0 12.0 0.00 0.00 0.00 54 915.6
20260504191415 49 251 2.0 8.0 0.00 0.00 0.00 54 915.7
20260504190418 49 264 2.0 9.0 0.00 0.00 0.00 53 915.9
20260504185421 49 248 4.0 9.0 0.00 0.00 0.00 54 916.3
20260504184422 46 222 5.0 15.0 0.00 0.00 0.00 56 916.3
20260504182933 49 273 5.0 11.0 0.00 0.00 0.00 51 916.7
20260504182413 49 271 4.0 11.0 0.00 0.00 0.00 54 916.9
20260504181417 47 261 3.0 9.0 0.00 0.00 0.00 54 916.6
20260504180421 48 293 5.0 12.0 0.00 0.00 0.00 39 916.6
20260504175425 48 315 10.0 18.0 0.00 0.00 0.00 39 916.6
20260504174426 49 308 6.0 10.0 0.00 0.00 0.00 38 916.6
20260504173433 48 297 4.0 16.0 0.00 0.00 0.00 39 916.8
20260504172417 48 306 8.0 17.0 0.00 0.00 0.00 36 916.7
20260504171424 49 296 9.0 15.0 0.00 0.00 0.00 37 916.5
20260504170426 48 296 9.0 12.0 0.00 0.00 0.00 40 916.7
20260504150914 47 280 3.0 7.0 0.00 0.00 0.00 44 917.8
20260504140933 41 231 3.0 6.0 0.00 0.00 0.00 50 918.0
20260504130432 35 220 0.0 2.0 0.00 0.00 0.00 62 918.5
20260504100426 31 355 0.0 1.0 0.00 0.00 0.00 58 918.3
20260504081920 31 359 0.0 3.0 0.00 0.00 0.00 57 918.7
20260504081210 32 108 0.0 0.0 0.00 0.00 0.00 56 918.7
20260504045919 36 285 0.0 1.0 0.00 0.00 0.00 48 919.7
20260504044922 37 285 0.0 0.0 0.00 0.00 0.00 46 920.0
20260504044416 38 285 0.0 1.0 0.00 0.00 0.00 45 920.1
20260504043425 38 285 0.0 1.0 0.00 0.00 0.00 46 920.3
20260504042426 39 285 0.0 1.0 0.00 0.00 0.00 45 920.2
20260504041924 40 285 0.0 0.0 0.00 0.00 0.00 41 920.1
20260504040929 41 285 0.0 2.0 0.00 0.00 0.00 40 920.2
20260504035918 40 303 0.0 2.0 0.00 0.00 0.00 41 920.3
20260504034924 40 294 0.0 0.0 0.00 0.00 0.00 41 920.2
20260504033925 41 294 0.0 0.0 0.00 0.00 0.00 40 920.3
20260504032938 42 294 0.0 0.0 0.00 0.00 0.00 39 920.4
20260504032433 42 294 0.0 0.0 0.00 0.00 0.00 39 920.3
20260504031414 43 294 0.0 0.0 0.00 0.00 0.00 38 920.3
20260504030425 43 294 0.0 2.0 0.00 0.00 0.00 38 920.1
20260504024933 44 290 0.0 1.0 0.00 0.00 0.00 37 919.9
20260504024412 44 290 0.0 1.0 0.00 0.00 0.00 36 919.9
20260504023415 43 81 0.0 0.0 0.00 0.00 0.00 46 919.7
20260504022913 43 81 0.0 0.0 0.00 0.00 0.00 46 919.8
20260504021918 45 70 0.0 0.0 0.00 0.00 0.00 38 919.7
20260504020919 47 280 0.0 0.0 0.00 0.00 0.00 36 919.5
20260504015921 50 280 0.0 6.0 0.00 0.00 0.00 29 919.6
20260504014927 50 283 1.0 9.0 0.00 0.00 0.00 29 919.6
20260504013926 52 307 3.0 9.0 0.00 0.00 0.00 28 919.7
20260504012933 52 271 4.0 13.0 0.00 0.00 0.00 27 919.7
20260504012435 52 240 4.0 13.0 0.00 0.00 0.00 26 919.7
20260504011415 52 307 3.0 10.0 0.00 0.00 0.00 27 919.8
20260504010422 52 297 6.0 13.0 0.00 0.00 0.00 26 919.7
20260504005426 53 304 4.0 9.0 0.00 0.00 0.00 27 919.8
20260504004431 54 308 4.0 13.0 0.00 0.00 0.00 25 919.8
20260504003916 54 297 5.0 13.0 0.00 0.00 0.00 24 919.8
20260504002919 54 245 6.0 13.0 0.00 0.00 0.00 23 919.9
20260504002417 54 273 5.0 11.0 0.00 0.00 0.00 23 919.9
20260504001421 54 269 5.0 16.0 0.00 0.00 0.00 23 919.8
20260504000420 55 295 8.0 20.0 0.00 0.00 0.00 22 919.8
20260503235424 55 242 7.0 21.0 0.00 0.00 0.00 24 919.8
20260503234426 54 256 8.0 23.0 0.00 0.00 0.00 22 919.9
20260503232922 55 271 8.0 19.0 0.00 0.00 0.00 22 920.1
20260503231918 54 257 8.0 14.0 0.00 0.00 0.00 24 920.1
20260503230919 55 231 7.0 16.0 0.00 0.00 0.00 24 920.0
20260503225922 55 311 11.0 24.0 0.00 0.00 0.00 23 920.2
20260503224926 55 278 6.0 18.0 0.00 0.00 0.00 25 920.4
20260503223929 54 304 8.0 20.0 0.00 0.00 0.00 23 920.0
20260503223109 55 239 8.0 17.0 0.00 0.00 0.00 24 920.4
20260503221913 55 257 7.0 20.0 0.00 0.00 0.00 24 920.3
20260503220921 54 310 11.0 20.0 0.00 0.00 0.00 23 920.5
20260503220420 54 317 11.0 20.0 0.00 0.00 0.00 23 920.5
20260503215419 54 293 7.0 15.0 0.00 0.00 0.00 27 920.6
20260503214423 54 301 9.0 19.0 0.00 0.00 0.00 26 920.8
20260503213431 53 271 10.0 18.0 0.00 0.00 0.00 26 920.7
20260503212431 54 299 8.0 13.0 0.00 0.00 0.00 25 920.9
20260503211434 55 298 9.0 13.0 0.00 0.00 0.00 24 921.3
20260503210914 55 302 8.0 18.0 0.00 0.00 0.00 23 921.3
20260503205920 55 285 7.0 22.0 0.00 0.00 0.00 26 921.2
20260503204926 54 297 12.0 17.0 0.00 0.00 0.00 24 921.2
20260503204411 54 297 11.0 20.0 0.00 0.00 0.00 28 921.3
20260503203414 55 281 8.0 16.0 0.00 0.00 0.00 25 921.5